STARLINK-32837 (62812 NORAD) Tracking and Keplerian Element Data

This shows tracking and keplerian element data for the satellite.

Feedback or suggestion? Click here.




ElementValue
Catalog62812
NameSTARLINK-32837
Epoch Orbit289
Epoch Day34.83335648
Epoch Year2025
RAAN13.6171
Inclination53.1468
Eccentricity0.0001003
Argument of Perigee111.8953
Mean Anonmoly197.8085
Mean Motion15.86662246
Decay Rate-0.00958123
L11 62812U 25018G 25034.83335648 -.00958123 00000+0 -41034-2 0 9992
L22 62812 53.1468 13.6171 0001003 111.8953 197.8085 15.86662246 2892



Live tracking and technical data element details for STARLINK-32837 (NORAD 62812). STARLINK-32837 can be tracked NOW for your location showing map with azimuth and elevation plus other details from your city location.







IsCatalogInMostPopularTable: catalog: 62812, numindb: 3
Update: records affected: 1



GetName: 62812 STARLINK-32837

Hit Count: updated at: Sun, 09 Feb 2025 15:08:19 GMT